Location: Unspecified
(0.0000°N, 0.0000°E)
Time: 04:02:57
(UTC+00:00)

QB50P2 - Pass Details

Date: 17 March 2026
Orbit: 517 x 528 km, 98.1° (Epoch: 20 April)

Event Time Altitude Azimuth Distance (km) Brightness Sun altitude
Rises 05:31:17 0° 343° (NNW) 2,621 ? -9.3°
Reaches altitude 10° 05:34:00 10° 321° (NW) 1,739 ? -8.6°
Maximum altitude 05:36:20 16° 282° (WNW) 1,408 ? -8.0°
Drops below altitude 10° 05:38:41 10° 243° (WSW) 1,747 ? -7.4°
Sets 05:41:26 0° 221° (SW) 2,640 ? -6.7°
